Location: Peebles
(55.6412°N, 3.1714°W)
Time: 03:02:34
(UTC+01:00)

COSMOS 2251 DEB - Visible Passes

Search period start: 21 May 2024 00:00
Search period end: 31 May 2024 00:00
Orbit: 589 x 695 km, 74.1° (Epoch: 15 February)

Date Brightness Start Highest point End Pass type
(mag) Time Alt. Az. Time Alt. Az. Time Alt. Az.
21 May ? 03:26:27 11° SSW 03:30:00 63° ESE 03:33:27 10° NNE visible
22 May ? 03:03:42 13° S 03:06:49 48° ESE 03:10:10 10° NE visible
23 May ? 02:40:50 14° S 02:43:32 37° ESE 02:46:45 10° NE visible
24 May ? 02:17:49 15° SSE 02:20:10 29° ESE 02:23:12 10° NE visible
25 May ? 01:54:42 14° SSE 01:56:44 23° ESE 01:59:29 10° NE visible
25 May ? 03:29:17 10° SW 03:32:40 40° NW 03:35:52 10° NNE visible
26 May ? 01:31:26 13° SE 01:33:12 18° ESE 01:35:36 10° ENE visible
26 May ? 03:05:53 12° SW 03:09:01 51° WNW 03:12:17 10° NNE visible
27 May ? 01:08:04 11° SE 01:09:36 14° E 01:11:27 10° ENE visible
27 May ? 02:42:30 15° SW 02:45:17 67° WNW 02:48:36 10° NNE visible
28 May ? 00:45:01 10° ESE 00:45:54 11° E 00:46:46 10° E visible
28 May ? 02:18:59 18° SSW 02:21:27 88° WNW 02:24:47 10° NNE visible
29 May ? 01:55:21 21° SSW 01:57:33 70° ESE 02:00:50 10° NNE visible
29 May ? 03:31:43 10° W 03:33:58 16° NW 03:36:09 10° N visible
30 May ? 01:31:35 22° S 01:33:33 52° ESE 01:36:45 10° NE visible
30 May ? 03:07:17 10° W 03:09:50 20° NW 03:12:18 10° N visible
